Weather History for KMTJ - December, 2013

Change the Weather History Date:

Sunday, December 22, 2013

  Actual Average Record
Temperature  
Mean Temperature 19 °F 25 °F  
Max Temperature 30 °F 37 °F 54 °F (2010)
Min Temperature 7 °F 14 °F -11 °F (1998)
Degree Days  
Heating Degree Days 46 40  
Month to date heating degree days 1001 827  
Since 1 July heating degree days 2407 2248  
Cooling Degree Days 0 0  
Month to date cooling degree days 0 0  
Year to date cooling degree days 891 643  
Moisture  
Dew Point 16 °F    
Average Humidity 79    
Maximum Humidity 100    
Minimum Humidity 58    
Precipitation  
Precipitation 0.00 in 0.03 in 0.14 in (2011)
Month to date precipitation 0.81 0.47  
Year to date precipitation 11.25 11.12  
Sea Level Pressure  
Sea Level Pressure 30.20 in    
Wind  
Wind Speed 3 mph (SSE)    
Max Wind Speed 9 mph    
Max Gust Speed 9 mph    
Visibility 9 miles    
Events      
T = Trace of Precipitation, MM = Missing Value Source: NWS Daily Summary

Daily Weather History Graph

Daily Weather History Graph

Search for Another Location

Airport or City:

Trip Planner

Search our weather history database for the weather conditions in past years. The results will help you decide how hot, cold, wet, or windy it might be!

Date:

Astronomy

Dec. 22, 2013 Rise Set
Actual Time 7:26 AM MST 4:54 PM MST
Civil Twilight 6:56 AM MST 5:24 PM MST
Nautical Twilight 6:22 AM MST 5:57 PM MST
Astronomical Twilight 5:50 AM MST 6:30 PM MST
Moon 10:06 PM MST (12/22) 10:27 AM MST (12/22)
Length of Visible Light 10h 28m
Length of Day
9h 28m
Waning Gibbous, 76% of the Moon is Illuminated
Dec 22
Waning Gibbous
Dec 25
Last Quarter
Jan 1
New
Jan 7
First Quarter
Jan 15
Full

Hourly Weather History & Observations

Time (MST) Temp. Windchill Dew Point Humidity Pressure Visibility Wind Dir Wind Speed Gust Speed Precip Events Conditions
12:19 AM 19.0 °F - 16.0 °F 88% 29.98 in 7.0 mi Calm Calm - N/A   Scattered Clouds
12:29 AM 19.0 °F - 18.0 °F 96% 29.99 in 7.0 mi Calm Calm - N/A   Mostly Cloudy
12:53 AM 21.0 °F - 19.0 °F 92% 30.03 in 8.0 mi Calm Calm - N/A   Overcast
1:14 AM 18.0 °F 11.1 °F 16.0 °F 92% 30.00 in 9.0 mi SE 4.6 mph - N/A   Scattered Clouds
1:43 AM 21.9 °F 14.5 °F 17.1 °F 82% 30.03 in 10.0 mi SE 5.8 mph - N/A   Mostly Cloudy
1:53 AM 19.9 °F 14.9 °F 17.1 °F 89% 30.08 in 10.0 mi SSW 3.5 mph - N/A   Mostly Cloudy
2:41 AM 21.0 °F 14.6 °F 17.1 °F 85% 30.04 in 10.0 mi South 4.6 mph - N/A   Scattered Clouds
2:53 AM 18.0 °F 11.1 °F 15.1 °F 88% 30.11 in 10.0 mi SSE 4.6 mph - N/A   Scattered Clouds
3:50 AM 15.8 °F 10.2 °F 12.2 °F 86% 30.07 in 9.0 mi SE 3.5 mph - N/A   Mostly Cloudy
3:53 AM 15.1 °F 9.4 °F 12.9 °F 91% 30.15 in 9.0 mi SSE 3.5 mph - N/A   Mostly Cloudy
4:32 AM 16.0 °F 10.4 °F 12.9 °F 88% 30.09 in 10.0 mi South 3.5 mph - N/A   Scattered Clouds
4:53 AM 15.1 °F - 12.0 °F 88% 30.18 in 10.0 mi Calm Calm - N/A   Scattered Clouds
5:53 AM 12.0 °F 1.5 °F 9.0 °F 88% 30.21 in 10.0 mi SSE 6.9 mph - N/A   Clear
6:53 AM 10.0 °F 1.8 °F 7.0 °F 87% 30.24 in 10.0 mi SSE 4.6 mph - N/A   Clear
7:53 AM 10.0 °F 1.8 °F 7.0 °F 87% 30.27 in 4.0 mi SSE 4.6 mph - N/A   Clear
8:53 AM 16.0 °F 10.4 °F 12.9 °F 88% 30.27 in 10.0 mi South 3.5 mph - N/A   Clear
9:53 AM 21.0 °F - 14.0 °F 74% 30.28 in 10.0 mi Calm Calm - N/A   Clear
10:53 AM 21.9 °F - 15.1 °F 75% 30.28 in 10.0 mi Calm Calm - N/A   Clear
11:53 AM 28.9 °F 25.2 °F 16.0 °F 58% 30.25 in 10.0 mi NNE 3.5 mph - N/A   Clear
12:53 PM 28.9 °F 23.9 °F 18.0 °F 64% 30.24 in 10.0 mi NNE 4.6 mph - N/A   Clear
1:53 PM 28.0 °F - 17.1 °F 63% 30.23 in 10.0 mi Calm Calm - N/A   Clear
2:53 PM 30.0 °F 25.2 °F 17.1 °F 59% 30.23 in 10.0 mi SSW 4.6 mph - N/A   Overcast
3:53 PM 28.9 °F 22.8 °F 16.0 °F 58% 30.25 in 10.0 mi South 5.8 mph - N/A   Overcast
4:53 PM 28.9 °F 25.2 °F 15.1 °F 56% 30.27 in 10.0 mi SE 3.5 mph - N/A   Overcast
5:53 PM 27.0 °F 21.6 °F 18.0 °F 69% 30.31 in 10.0 mi East 4.6 mph - N/A   Overcast
6:53 PM 27.0 °F 23.0 °F 19.0 °F 72% 30.35 in 10.0 mi West 3.5 mph - N/A   Overcast
7:53 PM 26.1 °F 21.9 °F 19.9 °F 78% 30.37 in 10.0 mi SE 3.5 mph - N/A   Overcast
8:53 PM 26.1 °F - 19.9 °F 78% 30.36 in 10.0 mi Calm Calm - N/A   Overcast
9:53 PM 26.1 °F - 21.0 °F 81% 30.35 in 9.0 mi Calm Calm - N/A   Overcast
10:53 PM 26.1 °F - 21.0 °F 81% 30.38 in 10.0 mi Calm Calm - N/A   Overcast
11:53 PM 25.0 °F - 21.0 °F 85% 30.37 in 8.0 mi Calm Calm - N/A   Overcast